Powrót do katalogu

COSMOS 1520

GLONASS

AktywnyNawigacjaMEO
NORAD 14591·PAYLOAD·🇷🇺 Russia

Wystrzelony Dec 29, 1983 z Baikonur Cosmodrome

Loading…

Następne Przeloty (najbliższe 24 godziny)

TLE

Starzejące sięSource: Space-Track

Epoka: Aug 29, 2026, 04:42 UTC

1 14591U 83127B   26241.19611859 -.00000043  00000-0  00000+0 0  9993
2 14591  66.3798 326.6297 0024578 170.6014 242.9286  2.13103109272511

Śledź COSMOS 1520 w czasie rzeczywistym z AllMySat

Download on the App Store